This demonstration page uses our WeatherBlox Daily Observations layout. Learn more.

Left ArrowRight Arrow

39.01783, -85.05884

Hourly Observations for March 29, 2022

Temp ( °F °C ) Dew Point ( °F °C ) Humidity (%) Winds ( mph kmh ) Pressure ( in mb ) Visibility ( mi km ) Precip ( " mm )
12:52 am 00:52 Partly Cloudy 32 0 17 -8.3 54 54 E 9 15 30.28 1025 10 16 0.00 0.00
1:52 am 01:52 Mostly Cloudy 32 0 16 -8.9 52 52 E 12 19 30.27 1025 10 16 0.00 0.00
2:52 am 02:52 Partly Cloudy 32 0 14 -10 47 47 E 12 19 30.27 1025 10 16 0.00 0.00
3:52 am 03:52 Partly Cloudy 31 -0.6 14 -10 49 49 E 10 17 30.25 1024 10 16 0.00 0.00
4:52 am 04:52 Mostly Cloudy 31 -0.6 14 -10 49 49 E 9 15 30.27 1025 10 16 0.00 0.00
5:52 am 05:52 Mostly Cloudy 31 -0.6 15 -9.4 52 52 E 7 11 30.27 1025 10 16 0.00 0.00
6:52 am 06:52 Cloudy 31 -0.6 14 -10 49 49 E 9 15 30.27 1025 10 16 0.00 0.00
7:52 am 07:52 Cloudy 31 -0.6 14 -10 49 49 ESE 10 17 30.28 1025 10 16 0.00 0.00
8:52 am 08:52 Cloudy 32 0 15 -9.4 50 50 E 9 15 30.29 1026 10 16 0.00 0.00
9:52 am 09:52 Cloudy 33 0.6 15 -9.4 47 47 ESE 12 19 30.27 1025 10 16 0.00 0.00
10:52 am 10:52 Cloudy 34 1.1 15 -9.4 46 46 E 14 22 30.27 1025 10 16 0.00 0.00
11:52 am 11:52 Cloudy 36 2.2 16 -8.9 44 44 ESE 14 22 30.27 1025 10 16 0.00 0.00
12:52 pm 12:52 Cloudy 38 3.3 16 -8.9 41 41 ESE 10 17 30.26 1025 10 16 0.00 0.00
1:52 pm 13:52 Cloudy 41 5 18 -7.8 39 39 E 12 19 30.22 1024 10 16 0.00 0.00
2:52 pm 14:52 Cloudy 41 5 15 -9.4 35 35 ESE 12 19 30.19 1022 10 16 0.00 0.00
3:52 pm 15:52 Cloudy 41 5 17 -8.3 38 38 E 12 19 30.16 1021 10 16 0.00 0.00
4:52 pm 16:52 Cloudy 41 5 21 -6.1 45 45 E 16 26 30.11 1020 10 16 0.00 0.00
5:52 pm 17:52 Cloudy 41 5 17 -8.3 38 38 E 14 22 30.09 1019 10 16 0.00 0.00
6:52 pm 18:52 Cloudy 42 5.6 16 -8.9 35 35 ESE 9 15 30.08 1019 10 16 0.00 0.00
7:52 pm 19:52 Cloudy 42 5.6 16 -8.9 35 35 ESE 16 26 30.03 1017 10 16 0.00 0.00
8:52 pm 20:52 Cloudy 43 6.1 16 -8.9 34 34 ESE 16 26 30.03 1017 10 16 0.00 0.00
9:52 pm 21:52 Cloudy 43 6.1 14 -10 31 31 E 12 19 30.03 1017 10 16 0.00 0.00
10:52 pm 22:52 Cloudy 44 6.7 12 -11.1 27 27 E 13 20 30.01 1016 10 16 0.00 0.00
11:52 pm 23:52 Cloudy 44 6.7 15 -9.4 31 31 E 12 19 29.98 1015 10 16 0.00 0.00

Powered by AerisWeather